Regional Weather Roundup
Issued by NWS

Home | Current Version | Previous Version | Graphics & Text | Print | Product List | Glossary On
Versions: 1 2 3 4 5 6 7 8 9 10 11 12 13 14 15 16 17 18 19 20 21 22 23 24 25 26 27 28 29 30 31 32 33 34 35 36 37 38 39 40 41 42 43 44 45 46 47 48 49 50
895
ASUS43 KFSD 211410
RWRSD

WEATHER ROUNDUP FOR SOUTH DAKOTA
NATIONAL WEATHER SERVICE SIOUX FALLS SD
900 AM CDT THU SEP 21 2017

NOTE: "FAIR" INDICATES FEW OR NO CLOUDS BELOW 12,000 FEET WITH NO
SIGNIFICANT WEATHER AND/OR OBSTRUCTIONS TO VISIBILITY.


SDZ001>005-009-010-012>017-211500-
NORTHWEST AND NORTH CENTRAL SOUTH DAKOTA

CITY           SKY/WX    TMP DP  RH WIND       PRES   REMARKS
BUFFALO          N/A     57  38  48 N7        29.60S
FAITH            N/A     59  42  53 SE23G29   29.64F
MOBRIDGE       SUNNY     64  49  57 S18G26    29.69S
$$

SDZ012>016-024>037-041>051-057-063-072>074-211500-
SOUTHWEST AND SOUTH CENTRAL SOUTH DAKOTA

CITY           SKY/WX    TMP DP  RH WIND       PRES   REMARKS
RAPID CTY ARPT SUNNY     57  39  51 S12       29.66S
PIERRE         SUNNY     60  47  61 SE15      29.73F
CUSTER         MOSUNNY   54  34  46 S8        29.74F
ELLSWORTH AFB  SUNNY     58  38  49 S15       29.63F
PHILIP         SUNNY     64  49  57 SE10      29.68F
PINE RIDGE     SUNNY     62  51  67 S26G40    29.68S
SPEARFISH      FAIR      54  37  54 W8        29.69R
WINNER         FAIR      60  50  69 SE14      29.77F
$$

SDZ004>011-016>023-039-040-211500-
NORTHEAST SOUTH DAKOTA

CITY           SKY/WX    TMP DP  RH WIND       PRES   REMARKS
ABERDEEN       SUNNY     59  48  67 S6        29.80F
WATERTOWN      SUNNY     57  48  72 SE12      29.86F
SISSETON         N/A     55  49  80 SE15      29.86S
$$

SDZ017-020-022-023-036>040-048>070-211500-
SOUTHEAST SOUTH DAKOTA

CITY           SKY/WX    TMP DP  RH WIND       PRES   REMARKS
SIOUX FALLS    MOSUNNY   62  54  74 E15       29.87F
HURON          SUNNY     57  49  74 SE10      29.81F
CHAMBERLAIN    SUNNY     62  52  68 SE15      29.79S
MITCHELL       MOSUNNY   58  50  75 SE16      29.83F
YANKTON        CLOUDY    57  53  86 E6        29.85F
$$

ABBREVIATIONS USED IN REMARKS
   TC - TEMPERATURE IN CELSIUS
  WCI - WIND CHILL INDEX
   HX - HEAT INDEX
  VSB - VISIBILITY





USA.gov is the U.S. government's official web portal to all federal, state and local government web resources and services.